timestamp,surface_pressure_avg,surface_temp_avg,battery_voltage,lat,long
2018-03-28 00:00:00+00:00,226.9364,1.83,12.65,47.84626,-54.09684
2018-03-28 00:10:00+00:00,222.3582,1.9,12.65,47.84626,-54.09684
2018-03-28 00:20:00+00:00,220.5597,1.98,12.65,47.84626,-54.09684
2018-03-28 00:30:00+00:00,217.3548,2.0,12.65,47.84626,-54.09684
2018-03-28 00:40:00+00:00,215.1613,2.0,12.65,47.84626,-54.09684
2018-03-28 00:50:00+00:00,214.0199,2.0,12.73,47.84626,-54.09684
2018-03-28 01:00:00+00:00,209.3949,2.0,12.65,47.84626,-54.09684
2018-03-28 01:10:00+00:00,205.7296,2.0,12.65,47.84626,-54.09684
2018-03-28 01:20:00+00:00,206.0114,2.0,12.65,47.84626,-54.09684
2018-03-28 01:30:00+00:00,201.4964,1.98,12.65,47.84626,-54.09684
2018-03-28 01:40:00+00:00,195.2131,1.96,12.65,47.84626,-54.09684
2018-03-28 01:50:00+00:00,194.5881,1.94,12.65,47.84626,-54.09684
2018-03-28 02:00:00+00:00,194.4082,1.9,12.65,47.84626,-54.09684
2018-03-28 02:10:00+00:00,191.3131,1.91,12.65,47.84626,-54.09684
2018-03-28 02:20:00+00:00,188.9782,1.92,12.65,47.84626,-54.09684
2018-03-28 02:30:00+00:00,188.9231,1.9,12.65,47.84626,-54.09684
2018-03-28 02:40:00+00:00,190.8148,1.96,12.65,47.84626,-54.09684
2018-03-28 02:50:00+00:00,188.5031,1.99,12.65,47.84626,-54.09684
2018-03-28 03:00:00+00:00,183.2982,2.0,12.65,47.84626,-54.09684
2018-03-28 03:10:00+00:00,185.6265,2.0,12.65,47.84626,-54.09684
2018-03-28 03:20:00+00:00,189.9132,2.0,12.65,47.84626,-54.09684
2018-03-28 03:30:00+00:00,189.1148,2.0,12.65,47.84626,-54.09684
2018-03-28 03:40:00+00:00,188.2248,2.0,12.65,47.84626,-54.09684
2018-03-28 03:50:00+00:00,191.6698,2.0,12.65,47.84626,-54.09684
2018-03-28 04:00:00+00:00,192.2314,2.02,12.65,47.84626,-54.09684
2018-03-28 04:10:00+00:00,197.6731,2.0,12.57,47.84626,-54.09684
2018-03-28 04:20:00+00:00,205.6081,2.0,12.65,47.84626,-54.09684
2018-03-28 04:30:00+00:00,208.7982,2.0,12.65,47.84626,-54.09684
2018-03-28 04:40:00+00:00,212.1297,2.09,12.65,47.84626,-54.09684
2018-03-28 04:50:00+00:00,217.4448,2.0,12.65,47.84626,-54.09684
2018-03-28 05:00:00+00:00,218.9214,2.0,12.65,47.84626,-54.09684
2018-03-28 05:10:00+00:00,222.4931,2.07,12.57,47.84626,-54.09684
2018-03-28 05:20:00+00:00,228.7015,2.09,12.65,47.84626,-54.09684
2018-03-28 05:30:00+00:00,233.1414,2.09,12.65,47.84626,-54.09684
2018-03-28 05:40:00+00:00,237.6247,2.09,12.65,47.84626,-54.09684
2018-03-28 05:50:00+00:00,242.9831,2.09,12.65,47.84626,-54.09684
2018-03-28 06:00:00+00:00,252.8014,2.08,12.65,47.84626,-54.09684
2018-03-28 06:10:00+00:00,265.8914,2.07,12.57,47.84626,-54.09684
2018-03-28 06:20:00+00:00,273.4831,2.08,12.65,47.84626,-54.09684
2018-03-28 06:30:00+00:00,277.6381,2.04,12.65,47.84626,-54.09684
2018-03-28 06:40:00+00:00,286.4614,1.9,12.65,47.84626,-54.09684
2018-03-28 06:50:00+00:00,300.493,1.97,12.65,47.84626,-54.09684
2018-03-28 07:00:00+00:00,300.8964,2.0,12.65,47.84626,-54.09684
2018-03-28 07:10:00+00:00,305.3781,2.0,12.57,47.84626,-54.09684
2018-03-28 07:20:00+00:00,312.558,1.94,12.65,47.84626,-54.09684
2018-03-28 07:30:00+00:00,316.9932,2.0,12.65,47.84626,-54.09684
2018-03-28 07:40:00+00:00,321.108,2.0,12.65,47.84626,-54.09684
2018-03-28 07:50:00+00:00,331.7664,1.9,12.65,47.84626,-54.09684
2018-03-28 08:00:00+00:00,339.0862,1.9,12.65,47.84626,-54.09684
2018-03-28 08:10:00+00:00,337.0147,2.0,12.57,47.84626,-54.09684
2018-03-28 08:20:00+00:00,341.2296,2.0,12.65,47.84626,-54.09684
2018-03-28 08:30:00+00:00,348.8863,2.0,12.65,47.84626,-54.09684
2018-03-28 08:40:00+00:00,352.1196,2.0,12.65,47.84626,-54.09684
2018-03-28 08:50:00+00:00,347.5646,1.9,12.65,47.84626,-54.09684
2018-03-28 09:00:00+00:00,348.2579,1.9,12.65,47.84626,-54.09684
2018-03-28 09:10:00+00:00,351.3812,1.9,12.57,47.84626,-54.09684
2018-03-28 09:20:00+00:00,349.9113,1.9,12.65,47.84626,-54.09684
2018-03-28 09:30:00+00:00,346.3129,1.9,12.65,47.84626,-54.09684
2018-03-28 09:40:00+00:00,345.5662,1.9,12.65,47.84626,-54.09684
2018-03-28 09:50:00+00:00,341.4162,1.9,12.65,47.84626,-54.09684
2018-03-28 10:00:00+00:00,341.6278,1.9,12.65,47.84626,-54.09684
2018-03-28 10:10:00+00:00,342.1564,1.88,12.57,47.84626,-54.09684
2018-03-28 10:20:00+00:00,338.5063,1.86,12.65,47.84626,-54.09684
2018-03-28 10:30:00+00:00,334.1147,1.8,12.65,47.84626,-54.09684
2018-03-28 10:40:00+00:00,332.1447,1.8,12.65,47.84626,-54.09684
2018-03-28 10:50:00+00:00,327.5263,1.8,12.73,47.84626,-54.09684
2018-03-28 11:00:00+00:00,319.418,1.8,12.65,47.84626,-54.09684
2018-03-28 11:10:00+00:00,314.5381,1.8,12.65,47.84626,-54.09684
2018-03-28 11:20:00+00:00,310.4614,1.8,12.73,47.84626,-54.09684
2018-03-28 11:30:00+00:00,301.0681,1.8,12.73,47.84626,-54.09684
2018-03-28 11:40:00+00:00,290.7048,1.8,12.73,47.84626,-54.09684
2018-03-28 11:50:00+00:00,286.1197,1.8,12.73,47.84626,-54.09684
2018-03-28 12:00:00+00:00,278.323,1.79,12.65,47.84626,-54.09684
2018-03-28 12:10:00+00:00,263.938,1.75,12.65,47.84626,-54.09684
2018-03-28 12:20:00+00:00,256.9531,1.75,12.65,47.84626,-54.09684
2018-03-28 12:30:00+00:00,259.753,1.75,12.73,47.84626,-54.09684
2018-03-28 12:40:00+00:00,255.0464,1.77,12.73,47.84626,-54.09684
2018-03-28 12:50:00+00:00,245.0264,1.76,12.73,47.84626,-54.09684
2018-03-28 13:00:00+00:00,238.6348,1.76,12.65,47.84626,-54.09684
2018-03-28 13:10:00+00:00,235.5214,1.77,12.65,47.84626,-54.09684
2018-03-28 13:20:00+00:00,229.2131,1.7,12.73,47.84626,-54.09684
2018-03-28 13:30:00+00:00,221.3248,1.7,12.65,47.84626,-54.09684
2018-03-28 13:40:00+00:00,214.7281,1.7,12.73,47.84626,-54.09684
2018-03-28 13:50:00+00:00,209.9681,1.7,12.73,47.84626,-54.09684
2018-03-28 14:00:00+00:00,200.0414,1.7,12.73,47.84626,-54.09684
2018-03-28 14:10:00+00:00,197.1298,1.7,12.65,47.84626,-54.09684
2018-03-28 14:20:00+00:00,197.7647,1.62,12.73,47.84626,-54.09684
2018-03-28 14:30:00+00:00,192.1764,1.7,12.73,47.84626,-54.09684
2018-03-28 14:40:00+00:00,187.1715,1.7,12.73,47.84626,-54.09684
2018-03-28 14:50:00+00:00,189.1464,1.72,12.73,47.84626,-54.09684
2018-03-28 15:00:00+00:00,190.4465,1.7,12.65,47.84626,-54.09684
2018-03-28 15:10:00+00:00,185.3548,1.7,12.65,47.84626,-54.09684
2018-03-28 15:20:00+00:00,183.2298,1.7,12.65,47.84626,-54.09684
2018-03-28 15:30:00+00:00,186.5498,1.7,12.73,47.84626,-54.09684
2018-03-28 15:40:00+00:00,181.3982,1.74,12.73,47.84626,-54.09684
2018-03-28 15:50:00+00:00,178.0131,1.79,12.73,47.84626,-54.09684
2018-03-28 16:00:00+00:00,183.3598,1.8,12.65,47.84626,-54.09684
2018-03-28 16:10:00+00:00,184.4481,1.79,12.65,47.84626,-54.09684
2018-03-28 16:20:00+00:00,184.1981,1.79,12.73,47.84626,-54.09684
2018-03-28 16:30:00+00:00,184.5048,1.79,12.73,47.84626,-54.09684
2018-03-28 16:40:00+00:00,189.4764,1.8,12.73,47.84626,-54.09684
2018-03-28 16:50:00+00:00,196.0348,1.8,12.73,47.84626,-54.09684
2018-03-28 17:00:00+00:00,196.4548,1.8,12.65,47.84626,-54.09684
2018-03-28 17:10:00+00:00,198.6048,1.79,12.65,47.84626,-54.09684
2018-03-28 17:20:00+00:00,203.0164,1.72,12.73,47.84626,-54.09684
2018-03-28 17:30:00+00:00,207.1098,1.71,12.73,47.84626,-54.09684
2018-03-28 17:40:00+00:00,211.4865,1.72,12.73,47.84626,-54.09684
2018-03-28 17:50:00+00:00,214.3065,1.73,12.73,47.84626,-54.09684
2018-03-28 18:00:00+00:00,213.4514,1.74,12.65,47.84626,-54.09684
2018-03-28 18:10:00+00:00,217.7614,1.74,12.65,47.84626,-54.09684
2018-03-28 18:20:00+00:00,229.9664,1.74,12.65,47.84626,-54.09684
2018-03-28 18:30:00+00:00,241.6414,1.77,12.65,47.84626,-54.09684
2018-03-28 18:40:00+00:00,249.7781,1.79,12.65,47.84626,-54.09684
2018-03-28 18:50:00+00:00,258.3781,1.75,12.73,47.84626,-54.09684
2018-03-28 19:00:00+00:00,267.5931,1.75,12.65,47.84626,-54.09684
2018-03-28 19:10:00+00:00,272.178,1.78,12.65,47.84626,-54.09684
2018-03-28 19:20:00+00:00,274.5397,1.78,12.65,47.84626,-54.09684
2018-03-28 19:30:00+00:00,281.6064,1.7,12.65,47.84626,-54.09684
2018-03-28 19:40:00+00:00,291.533,1.72,12.65,47.84626,-54.09684
2018-03-28 19:50:00+00:00,294.308,1.73,12.65,47.84626,-54.09684
2018-03-28 20:00:00+00:00,294.9064,1.73,12.65,47.84626,-54.09684
2018-03-28 20:10:00+00:00,303.258,1.7,12.65,47.84626,-54.09684
2018-03-28 20:20:00+00:00,311.0748,1.7,12.65,47.84626,-54.09684
2018-03-28 20:30:00+00:00,308.8464,1.7,12.65,47.84626,-54.09684
2018-03-28 20:40:00+00:00,313.173,1.7,12.65,47.84626,-54.09684
2018-03-28 20:50:00+00:00,322.2964,1.7,12.65,47.84626,-54.09684
2018-03-28 21:00:00+00:00,325.6713,1.7,12.65,47.84626,-54.09684
2018-03-28 21:10:00+00:00,318.713,1.7,12.65,47.84626,-54.09684
2018-03-28 21:20:00+00:00,323.3464,1.7,12.65,47.84626,-54.09684
2018-03-28 21:30:00+00:00,328.6281,1.7,12.65,47.84626,-54.09684
2018-03-28 21:40:00+00:00,328.7313,1.7,12.65,47.84626,-54.09684
2018-03-28 21:50:00+00:00,322.333,1.7,12.65,47.84626,-54.09684
2018-03-28 22:00:00+00:00,321.9896,1.7,12.65,47.84626,-54.09684
2018-03-28 22:10:00+00:00,317.9514,1.73,12.57,47.84626,-54.09684
2018-03-28 22:20:00+00:00,315.9131,1.79,12.65,47.84626,-54.09684
2018-03-28 22:30:00+00:00,313.938,1.8,12.65,47.84626,-54.09684
2018-03-28 22:40:00+00:00,313.173,1.8,12.65,47.84626,-54.09684
2018-03-28 22:50:00+00:00,313.273,1.71,12.65,47.84626,-54.09684
2018-03-28 23:00:00+00:00,311.333,1.8,12.65,47.84626,-54.09684
2018-03-28 23:10:00+00:00,303.7646,1.88,12.57,47.84626,-54.09684
2018-03-28 23:20:00+00:00,297.5047,1.9,12.65,47.84626,-54.09684
2018-03-28 23:30:00+00:00,291.9114,1.9,12.65,47.84626,-54.09684
2018-03-28 23:40:00+00:00,288.2463,1.9,12.65,47.84626,-54.09684
2018-03-28 23:50:00+00:00,279.2214,1.9,12.65,47.84626,-54.09684
